This is the latest recevied weather packets stored in our database for station/object SP4MAZ-13. If no packets are shown the sender has not sent any weather packets the latest 10 day(s).
| Time | Temp. | Humidity | Pressure | Rain* | Wind** | Luminosity | Snow |
|---|---|---|---|---|---|---|---|
| 1777624602 | 13.33° C | 47% | 2147.4 hPa | - | - | - | - |
| 1777624299 | 12.78° C | 51% | 2147.4 hPa | - | - | - | - |
| 1777623995 | 12.78° C | 51% | 2147.4 hPa | - | - | - | - |
| 1777623691 | 12.22° C | 54% | 2147.4 hPa | - | - | - | - |
| 1777623390 | 12.78° C | 52% | 2147.4 hPa | - | - | - | - |
| 1777623087 | 12.78° C | 49% | 2147.4 hPa | - | - | - | - |
| 1777622783 | 13.33° C | 48% | 2147.4 hPa | - | - | - | - |
| 1777622480 | 12.78° C | 50% | 2147.4 hPa | - | - | - | - |
| 1777622176 | 12.78° C | 48% | 2147.4 hPa | - | - | - | - |
| 1777621873 | 13.33° C | 50% | 2147.4 hPa | - | - | - | - |
| 1777621569 | 12.78° C | 51% | 2147.4 hPa | - | - | - | - |
| 1777621266 | 11.67° C | 56% | 2147.4 hPa | - | - | - | - |
| 1777620963 | 12.22° C | 55% | 2147.4 hPa | - | - | - | - |
| 1777620659 | 11.67° C | 52% | 2147.4 hPa | - | - | - | - |
| 1777620356 | 11.67° C | 53% | 2147.4 hPa | - | - | - | - |
| 1777620052 | 12.22° C | 51% | 2147.4 hPa | - | - | - | - |
| 1777619748 | 11.67° C | 51% | 2147.4 hPa | - | - | - | - |
| 1777619446 | 11.67° C | 51% | 2147.4 hPa | - | - | - | - |
| 1777619142 | 11.67° C | 49% | 2147.4 hPa | - | - | - | - |
| 1777618839 | 11.67° C | 50% | 2147.4 hPa | - | - | - | - |
| 1777618535 | 11.11° C | 48% | 2147.4 hPa | - | - | - | - |
| 1777618231 | 11.11° C | 48% | 2147.4 hPa | - | - | - | - |
| 1777617929 | 11.11° C | 46% | 2147.4 hPa | - | - | - | - |
| 1777617625 | 11.11° C | 49% | 2147.4 hPa | - | - | - | - |
| 1777617321 | 11.11° C | 47% | 2147.4 hPa | - | - | - | - |
* Rain since midnight (hover to see other rain measurements)
** Current wind speed in m/s (hover to see current wind gust speed)